Regional Weather Roundup
Issued by NWS

Home | Current Version | Previous Version | Text Only | Print | Product List | Glossary Off
Versions: 1 2 3 4 5 6 7 8 9 10 11 12 13 14 15 16 17 18 19 20 21 22 23 24 25 26 27 28 29 30 31 32 33 34 35 36 37 38 39 40 41 42 43 44 45 46 47 48 49 50

000
ASUS45 KBOU 281607
RWRCO

WEATHER ROUNDUP FOR COLORADO
NATIONAL WEATHER SERVICE DENVER/BOULDER CO
1000 AM MDT TUE MAR 28 2017

NOTE: "FAIR" INDICATES FEW OR NO CLOUDS BELOW 12000 FEET WITH NO
SIGNIFICANT WEATHER AND/OR OBSTRUCTIONS TO VISIBILITY.

COZ001>005-013-030-031-281700-
...NORTHWEST COLORADO...

CITY           SKY/WX    TMP DP  RH WIND       PRES   REMARKS
CRAIG          MIX PCPN  35  32  88 SW9       29.92S WCI  28
HAYDEN         CLOUDY    32  28  86 CALM      29.92R VSB 1/4
MEEKER         LGT RAIN  36  35  96 SW8       29.92R
MOUNT WERNER   NOT AVBL
STEAMBOAT SPGS CLOUDY    33  33  98 CALM      29.91R
WALDEN         NOT AVBL
$$

COZ006>008-011-281700-
...WEST CENTRAL VALLEYS...

CITY           SKY/WX    TMP DP  RH WIND       PRES   REMARKS
GRAND JUNCTION CLOUDY    44  42  93 NW8       29.90R
MONTROSE       LGT RAIN  41  39  93 NW3       29.92S
EAGLE          CLOUDY    39  36  87 CALM      29.92S
RIFLE          CLOUDY    45  39  79 W8        29.89S
DELTA          CLOUDY    44  41  89 CALM      29.90R
NUCLA          CLOUDY    41  37  87 W3        29.93R
$$

COZ017>023-064>068-281700-
...SOUTHWEST COLORADO...

CITY           SKY/WX    TMP DP  RH WIND       PRES   REMARKS
DURANGO        FAIR      42  36  79 VRB5      29.85S
CORTEZ         CLOUDY    42  37  82 W5        29.88R
PAGOSA SPRINGS FAIR      40  35  80 NW3       29.86F
TELLURIDE      CLOUDY    29  29 100 CALM      29.92R
WOLF CREEK PAS FAIR      23  23 100 NE6       29.97S WCI  16
$$

COZ009-010-012-014-032>034-037-058>063-281700-
...CENTRAL COLORADO...

CITY           SKY/WX    TMP DP  RH WIND       PRES   REMARKS
ASPEN          LGT SNOW  34  33  96 N5        29.88S VSB 1   WCI  30
BUENA VISTA    PTSUNNY   44  31  60 CALM      29.86S
COPPER MTN     NOT AVBL
BERTHOUD PASS  LGT SNOW  21  10  63 S3        29.96R
COTTONWOOD PAS CLOUDY    39  30  70 CALM      29.90S
GUNNISON       PTSUNNY   37  33  85 W5        29.89R
KREMMLING      LGT RAIN  37  36  93 CALM      29.91R
LEADVILLE      FAIR      31  24  75 CALM      29.88F
MONARCH PASS   CLOUDY    27  23  86 SW6       30.04R WCI  20
SALIDA         FAIR      48  33  57 CALM      29.93R
SUNLIGHT       SNOW      27  27 100 NW5       29.98R VSB 1/4 WCI  21
WILKERSON PASS PTSUNNY   32  27  80 CALM      29.96R
$$

COZ069>075-281700-
...SAN LUIS VALLEY/SANGRE DE CRISTO MOUNTAINS...

CITY           SKY/WX    TMP DP  RH WIND       PRES   REMARKS
ALAMOSA        PTSUNNY   40  34  79 CALM      29.85F
LA VETA PASS   NOT AVBL
SAGUACHE       CLOUDY    39  32  75 NW5       29.88S
$$

COZ035-036-038>040-281700-
...NORTHERN COLORADO FRONT RANGE...

CITY           SKY/WX    TMP DP  RH WIND       PRES   REMARKS
DENVER INTL AP CLOUDY    44  39  82 NW18      29.85S
DMNS CITY PARK   N/A     44  39  82 N13       29.86S
AURORA         CLOUDY    42  42 100 NW14      29.87R
FRONT RANGE AP CLOUDY    46  43  87 NW14      29.86R
ERIE MUNI ARPT CLOUDY    44  40  85 NW14      29.87S
BOULDER MUN AP RAIN      43  41  93 NW3       29.87S
CENTENNIAL     CLOUDY    42  39  89 N13       29.87R
BROOMFIELD     CLOUDY    45  41  87 N13G21    29.87S
FORT COLLINS   LGT RAIN  43  41  93 N14       29.88S
LONGMONT       CLOUDY    47  40  75 N13       29.89S
$$

COZ041-046-047-076>085-087-088-281700-
...PIKES PEAK/PALMER DIVIDE AND SOUTHERN FOOTHILLS...

CITY           SKY/WX    TMP DP  RH WIND       PRES   REMARKS
COLO. SPRINGS  PTSUNNY   43  36  76 E13       29.86R
A. F. ACADEMY  NOT AVBL
SCHRIEVER AFB  PTSUNNY   40  38  93 NE10      29.86S
ELLICOTT       CLOUDY     1  32 100 E12       29.84  WCI -16
FALCON         PTSUNNY   39  37  91 E13       29.88R
FORT CARSON    MOSUNNY   42  38  84 E12       29.84R
LIMON          CLOUDY    42  42 100 S9        29.86S FOG
MONUMENT HILL  CLOUDY    37  36  93 NW12      29.88R
TRINIDAD       PTSUNNY   47  40  76 E10       29.81F
$$

COZ042>045-048>051-090-091-281700-
...NORTHEAST COLORADO...

CITY           SKY/WX    TMP DP  RH WIND       PRES   REMARKS
GREELEY ARPT   CLOUDY    46  41  82 NE10      29.87R
AKRON          CLOUDY    46  43  89 SE14      29.87S FOG
BURLINGTON     CLOUDY    46  45  96 SE16      29.88F
WRAY           LGT RAIN N/A N/A N/A SE13      29.91S
STERLING       CLOUDY    46  45  93 SE10      29.87S
HOLYOKE        RAIN      46  43  87 SE14G21   29.93R
FORT MORGAN    CLOUDY    48  39  70 SE8       29.87S
$$

COZ086-089-092>099-281700-
...SOUTHEAST COLORADO...

CITY           SKY/WX    TMP DP  RH WIND       PRES   REMARKS
PUEBLO         PTSUNNY   47  41  80 NE10      29.82F
LA JUNTA       PTSUNNY   54  42  64 S5        29.81R
LAMAR          CLOUDY    48  45  89 E7        29.83R FOG
SPRINGFIELD      N/A     44  44 100 E8        29.85S
$$



USA.gov is the U.S. government's official web portal to all federal, state and local government web resources and services.